MCMWTC BRIDGEPORT, CA, CA

8:17 AM PDT on July 28, 2017 (GMT -0700)
MCMWTC BRIDGEPORT, CA

Weather History for KBAN - December, 2014

Change the Weather History Date:

Thursday, December 11, 2014

  Actual Average (KTVL) Record (KTVL)
Temperature  
Mean Temperature 47 °F -  
Max Temperature 50 °F 42 °F 59 °F (1990)
Min Temperature 44 °F 20 °F -19 °F (1972)
Degree Days  
Heating Degree Days 18    
Moisture  
Dew Point 21 °F    
Average Humidity 37    
Maximum Humidity 53    
Minimum Humidity 28    
Precipitation  
Precipitation 0.00 in - - ()
Sea Level Pressure  
Sea Level Pressure 29.57 in    
Wind  
Wind Speed 23 mph (SW)    
Max Wind Speed 37 mph    
Max Gust Speed 60 mph    
Averages and records for this station are not official NWS values.
T = Trace of Precipitation, MM = Missing Value Source: NWS Daily Summary

Daily Weather History Graph

Daily Weather History Graph

Search for Another Location

Airport or City:

Trip Planner

Search our weather history database for the weather conditions in past years. The results will help you decide how hot, cold, wet, or windy it might be!

Date:

Astronomy

Dec. 11, 2014 Rise Set
Actual Time 7:05 AM PST 4:37 PM PST
Civil Twilight 6:35 AM PST 5:07 PM PST
Nautical Twilight 6:02 AM PST 5:40 PM PST
Astronomical Twilight 5:30 AM PST 6:12 PM PST
Moon 9:50 PM PST (12/11) 10:34 AM PST (12/11)
Length of Visible Light 10h 31m
Length of Day
9h 32m
Waning Gibbous, 74% of the Moon is Illuminated
Dec 11
Waning Gibbous
Dec 14
Last Quarter
Dec 21
New
Dec 28
First Quarter
Jan 4
Full

Hourly Weather History & Observations

Time (PST) Temp. Windchill Dew Point Humidity Pressure Visibility Wind Dir Wind Speed Gust Speed Precip Events Conditions
12:52 AM 46.9 °F - 17.1 °F 30% 29.66 in - SW 21.9 mph 33.4 mph N/A   Clear
1:52 AM 46.9 °F - 17.1 °F 30% 29.64 in - SW 21.9 mph 34.5 mph N/A   Clear
2:52 AM 46.9 °F - 21.0 °F 36% 29.63 in - SW 25.3 mph 39.1 mph N/A   Clear
3:52 AM 46.9 °F - 19.9 °F 34% 29.60 in - SW 21.9 mph 27.6 mph N/A   Clear
4:52 AM 48.0 °F - 19.0 °F 32% 29.63 in - WSW 19.6 mph 33.4 mph N/A   Clear
5:52 AM 48.9 °F - 18.0 °F 29% 29.63 in - WSW 25.3 mph 47.2 mph N/A   Overcast
6:52 AM 46.9 °F - 23.0 °F 39% 29.67 in - WSW 20.7 mph 32.2 mph N/A   Overcast
7:52 AM 46.9 °F - 24.1 °F 41% 29.64 in - WSW 21.9 mph 41.4 mph N/A   Overcast
8:52 AM 48.0 °F - 25.0 °F 41% 29.60 in - WSW 26.5 mph 42.6 mph 0.00 in Rain Light Rain
9:52 AM 50.0 °F - 24.1 °F 36% 29.60 in - WSW 31.1 mph 48.3 mph 0.00 in   Overcast
10:52 AM 46.0 °F 35.8 °F 27.0 °F 47% 29.58 in - WSW 36.8 mph 59.8 mph 0.00 in Rain Light Rain
11:52 AM 45.0 °F 34.4 °F 26.1 °F 48% 29.55 in - WSW 35.7 mph 57.5 mph 0.00 in Rain Light Rain
12:52 PM 44.1 °F 35.0 °F 28.0 °F 53% 29.55 in - WSW 24.2 mph 39.1 mph 0.00 in Rain Light Rain
1:52 PM 46.0 °F 39.0 °F 25.0 °F 44% 29.53 in - SW 17.3 mph 31.1 mph 0.00 in   Overcast
2:52 PM 46.9 °F - 23.0 °F 39% 29.51 in - SW 13.8 mph - N/A   Overcast
3:52 PM 48.0 °F - 19.0 °F 32% 29.49 in - SW 11.5 mph 23.0 mph N/A   Overcast
4:52 PM 46.9 °F - 19.0 °F 33% 29.50 in - SW 17.3 mph 25.3 mph N/A   Overcast
5:52 PM 46.0 °F 39.3 °F 19.0 °F 34% 29.50 in - SW 16.1 mph 21.9 mph N/A   Overcast
6:52 PM 46.0 °F 39.0 °F 19.0 °F 34% 29.47 in - SW 17.3 mph 26.5 mph N/A   Overcast
7:52 PM 46.9 °F - 15.1 °F 28% 29.44 in - SW 21.9 mph 43.7 mph N/A   Overcast